Waarnemingen

Advertentie
Mijn weer
UFS TW Ems, Duitsland (10004): temperatuur & dauwpunt: 15.01.2017 01:00:00 - 21.01.2017 01:00:00 (CET)UFS TW Ems, Duitsland (10004): windsnelheid & windstoten: 15.01.2017 01:00:00 - 21.01.2017 01:00:00 (CET)UFS TW Ems, Duitsland (10004): windrichting: 15.01.2017 01:00:00 - 21.01.2017 01:00:00 (CET)UFS TW Ems, Duitsland (10004): luchtdruk: 15.01.2017 01:00:00 - 21.01.2017 01:00:00 (CET)UFS TW Ems, Duitsland (10004): zicht: 15.01.2017 01:00:00 - 21.01.2017 01:00:00 (CET)UFS TW Ems, Duitsland (10004): Zonneschijnduur: 15.01.2017 01:00:00 - 21.01.2017 01:00:00 (CET)
Datum & Tijd tt [°C] td [°C] ff [km/u] ff [kn] fx [km/u] fx [kn] dd ppp [hPa] vv [km] sd [min]
21.01.2017 01:00:00 - - - - - - - - - -
21.01.2017 00:00:00 6,3 3,5 4 2 - - ZO 1034,6 10 0
20.01.2017 23:00:00 6,7 3,8 4 2 - - ZO 1034,8 10 0
20.01.2017 22:00:00 6,4 3,5 4 2 - - O 1035,0 10 0
20.01.2017 21:00:00 6,1 3,4 7 4 - - NNO 1035,0 10 0
20.01.2017 20:00:00 6,0 3,6 11 6 - - N 1034,9 10 0
20.01.2017 19:00:00 6,2 3,3 14 8 - - N 1035,0 10 0
20.01.2017 18:00:00 6,4 3,1 14 8 - - NNW 1034,9 10 0
20.01.2017 17:00:00 6,5 3,4 14 8 - - NW 1034,9 10 0
20.01.2017 16:00:00 6,5 3,0 11 6 - - WNW 1034,9 10 0
20.01.2017 15:00:00 6,5 3,0 18 10 - - NNW 1035,1 10 0
20.01.2017 14:00:00 6,3 3,5 14 8 - - WNW 1035,4 10 0
20.01.2017 13:00:00 6,5 3,2 14 8 - - NW 1035,9 10 0
20.01.2017 12:00:00 6,5 3,7 14 8 - - NW 1036,2 10 0
20.01.2017 11:00:00 6,6 4,2 14 8 - - WNW 1036,4 10 0
20.01.2017 10:00:00 6,6 4,2 11 6 - - NW 1036,2 10 0
20.01.2017 09:00:00 6,5 4,7 11 6 - - W 1036,0 10 0
20.01.2017 08:00:00 6,4 5,1 14 8 - - WNW 1035,8 10 0
20.01.2017 07:00:00 6,3 5,0 14 8 - - WNW 1035,8 9 0
20.01.2017 06:00:00 6,4 5,3 11 6 - - NW 1035,8 10 0
20.01.2017 05:00:00 6,2 5,5 11 6 - - NNW 1036,2 10 0
20.01.2017 04:00:00 6,1 5,8 11 6 - - NW 1036,2 10 0
20.01.2017 03:00:00 6,3 6,0 18 10 - - W 1036,3 7 0
20.01.2017 02:00:00 6,0 5,7 14 8 - - WZW 1036,5 4,8 0
20.01.2017 01:00:00 6,1 5,7 14 8 - - WZW 1036,8 8 0
20.01.2017 00:00:00 5,8 5,8 7 4 - - W 1037,1 4,5 0
19.01.2017 23:00:00 5,9 5,4 18 10 - - WZW 1037,2 6 0
19.01.2017 22:00:00 5,8 5,2 22 12 - - ZW 1037,1 4,0 0
19.01.2017 21:00:00 6,3 5,6 18 10 - - WZW 1037,1 10 0
19.01.2017 20:00:00 6,4 5,4 18 10 - - WZW 1036,9 10 0
19.01.2017 19:00:00 6,4 5,2 18 10 - - WZW 1036,8 10 0
19.01.2017 18:00:00 6,4 5,0 18 10 - - W 1036,8 10 0
19.01.2017 17:00:00 6,3 4,3 22 12 - - WZW 1036,6 10 0
19.01.2017 16:00:00 6,2 3,9 18 10 - - WZW 1036,6 10 6
19.01.2017 15:00:00 6,2 4,0 18 10 - - WZW 1036,9 10 0
19.01.2017 14:00:00 6,1 3,9 18 10 - - W 1037,2 10 0
19.01.2017 13:00:00 5,9 3,0 18 10 - - W 1037,4 10 0
19.01.2017 12:00:00 5,7 3,1 18 10 - - WZW 1038,0 10 0
19.01.2017 11:00:00 5,5 3,6 22 12 - - WZW 1038,0 10 0
19.01.2017 10:00:00 5,5 3,8 22 12 - - WZW 1038,0 10 0
19.01.2017 09:00:00 5,4 3,7 25 14 - - WZW 1037,7 10 0
19.01.2017 08:00:00 5,5 3,9 25 14 - - ZW 1037,2 10 0
19.01.2017 07:00:00 5,6 4,1 25 14 - - ZW 1036,9 10 0
19.01.2017 06:00:00 5,4 4,0 25 14 - - ZW 1036,8 9 0
19.01.2017 05:00:00 5,3 3,9 25 14 - - ZZW 1037,4 8 0
19.01.2017 04:00:00 5,7 3,8 22 12 - - ZW 1037,5 10 0
19.01.2017 03:00:00 5,6 3,7 22 12 - - ZW 1037,4 10 0
19.01.2017 02:00:00 5,4 3,5 25 14 - - ZW 1037,6 9 0
19.01.2017 01:00:00 5,0 3,5 25 14 - - ZW 1037,6 9 0
19.01.2017 00:00:00 4,9 3,2 25 14 - - ZW 1037,7 9 0
18.01.2017 23:00:00 4,7 2,9 25 14 - - ZW 1037,9 10 0
18.01.2017 22:00:00 4,8 3,1 25 14 - - ZW 1037,9 10 0
18.01.2017 21:00:00 4,6 3,0 25 14 - - ZW 1038,1 10 0
18.01.2017 20:00:00 4,3 2,4 32 18 - - ZZW 1038,0 10 0
18.01.2017 19:00:00 5,0 2,6 29 16 - - ZW 1038,2 10 0
18.01.2017 18:00:00 4,6 2,2 29 16 - - ZW 1038,1 10 0
18.01.2017 17:00:00 4,6 1,8 25 14 - - ZW 1038,3 10 0
18.01.2017 16:00:00 4,0 1,3 29 16 - - ZW 1038,0 10 0
18.01.2017 15:00:00 3,5 0,5 32 18 - - ZW 1038,3 10 0
18.01.2017 14:00:00 3,2 0,2 32 18 - - ZZW 1038,5 10 0
18.01.2017 13:00:00 3,2 0,1 32 18 - - ZZW 1039,0 10 0
18.01.2017 12:00:00 3,7 -0,8 29 16 - - ZZW 1039,2 10 0
18.01.2017 11:00:00 3,8 -1,4 29 16 - - ZW 1039,3 10 0
18.01.2017 10:00:00 3,5 -2,1 32 18 - - ZZW 1038,7 10 0
18.01.2017 09:00:00 3,5 -2,9 32 18 - - ZZW 1038,5 10 0
18.01.2017 08:00:00 3,6 -3,2 32 18 - - ZZW 1038,1 10 0
18.01.2017 07:00:00 3,6 -2,1 32 18 - - ZW 1037,8 10 0
18.01.2017 06:00:00 3,3 -2,8 32 18 - - ZZW 1038,0 10 0
18.01.2017 05:00:00 3,5 -2,2 32 18 - - ZZW 1038,2 10 0
18.01.2017 04:00:00 3,2 -0,7 32 18 - - ZZW 1038,1 10 0
18.01.2017 03:00:00 3,3 0,2 25 14 - - ZZW 1038,6 10 0
18.01.2017 02:00:00 3,2 -0,7 25 14 - - ZW 1038,7 10 0
18.01.2017 01:00:00 3,1 0,0 29 16 - - ZW 1038,8 10 0
18.01.2017 00:00:00 3,1 -0,2 25 14 - - ZZW 1038,9 10 0
17.01.2017 23:00:00 3,1 -0,9 25 14 - - ZZW 1038,9 10 0
17.01.2017 22:00:00 3,1 -1,2 25 14 - - ZZW 1038,7 10 0
17.01.2017 21:00:00 3,2 -1,7 22 12 - - ZW 1038,6 10 0
17.01.2017 20:00:00 3,1 -2,7 25 14 - - ZW 1038,6 10 0
17.01.2017 19:00:00 3,2 -2,9 25 14 - - ZW 1038,2 10 0
17.01.2017 18:00:00 3,2 -3,3 22 12 - - ZW 1038,0 10 0
17.01.2017 17:00:00 3,0 -3,9 22 12 - - ZW 1037,9 10 0
17.01.2017 16:00:00 3,0 -3,3 18 10 - - ZW 1038,0 10 18
17.01.2017 15:00:00 3,2 -4,7 22 12 - - ZZW 1037,7 10 0
17.01.2017 14:00:00 3,2 -4,8 22 12 - - ZZW 1037,9 10 0
17.01.2017 13:00:00 3,4 -2,6 18 10 - - ZZW 1038,0 10 0
17.01.2017 12:00:00 3,6 -1,7 18 10 - - ZZW 1037,9 10 0
17.01.2017 11:00:00 3,5 -3,1 18 10 - - ZZW 1037,6 10 0
17.01.2017 10:00:00 3,6 -2,6 11 6 - - ZZW 1037,3 10 0
17.01.2017 09:00:00 3,6 -3,7 11 6 - - Z 1036,9 10 0
17.01.2017 08:00:00 3,5 -3,8 7 4 - - Z 1036,2 10 0
17.01.2017 07:00:00 3,4 -4,3 7 4 - - ZW 1036,2 10 0
17.01.2017 06:00:00 3,5 -4,6 7 4 - - Z 1035,6 10 0
17.01.2017 05:00:00 3,4 -4,4 7 4 - - ZZO 1035,3 10 0
17.01.2017 04:00:00 3,3 -5,3 7 4 - - ZZO 1035,3 10 0
17.01.2017 03:00:00 3,1 -5,1 7 4 - - ZO 1034,9 10 0
17.01.2017 02:00:00 3,1 -5,9 11 6 - - OZO 1034,3 10 0
17.01.2017 01:00:00 3,1 -4,6 4 2 - - O 1034,4 10 0
17.01.2017 00:00:00 3,1 -4,8 7 4 - - OZO 1034,2 10 0
16.01.2017 23:00:00 3,1 -4,6 11 6 - - O 1033,9 10 0
16.01.2017 22:00:00 3,0 -4,7 11 6 - - O 1033,4 10 0
16.01.2017 21:00:00 3,0 -4,3 11 6 - - O 1033,0 10 0
16.01.2017 20:00:00 3,1 -3,5 11 6 - - ONO 1032,1 10 0
16.01.2017 19:00:00 3,0 -3,7 11 6 - - ONO 1031,6 10 0
16.01.2017 18:00:00 3,0 -3,7 11 6 - - ONO 1031,0 10 0
16.01.2017 17:00:00 3,1 -3,9 11 6 - - ONO 1030,6 10 42
16.01.2017 16:00:00 3,1 -4,4 11 6 - - ONO 1030,1 10 60
16.01.2017 15:00:00 3,1 -3,9 7 4 - - NO 1029,7 10 60
16.01.2017 14:00:00 2,7 -3,5 7 4 - - O 1029,3 3,0 60
16.01.2017 13:00:00 2,7 -3,4 11 6 - - O 1029,1 2,8 60
16.01.2017 12:00:00 2,7 -4,2 11 6 - - ONO 1029,0 10 60
16.01.2017 11:00:00 2,9 -4,5 14 8 - - O 1028,7 10 60
16.01.2017 10:00:00 2,8 -3,1 14 8 - - O 1028,2 10 60
16.01.2017 09:00:00 2,5 -3,0 14 8 - - O 1027,7 10 0
16.01.2017 08:00:00 2,5 -3,2 14 8 - - ONO 1027,0 10 0
16.01.2017 07:00:00 2,9 -4,5 14 8 - - ONO 1026,5 10 0
16.01.2017 06:00:00 3,0 -3,0 18 10 - - ONO 1026,1 10 0
16.01.2017 05:00:00 3,0 -3,3 18 10 - - ONO 1025,3 10 0
16.01.2017 04:00:00 3,3 -4,9 22 12 - - NO 1025,1 10 0
16.01.2017 03:00:00 3,4 -3,3 22 12 - - NO 1024,7 10 0
16.01.2017 02:00:00 3,6 -3,0 22 12 - - NO 1024,2 10 0
16.01.2017 01:00:00 4,0 -2,2 22 12 - - NO 1023,9 10 0
16.01.2017 00:00:00 3,2 0,6 18 10 - - NW 1023,5 10 0
15.01.2017 23:00:00 3,5 0,4 7 4 - - O 1023,1 10 0
15.01.2017 22:00:00 3,6 -0,6 25 14 - - N 1022,9 10 0
15.01.2017 21:00:00 4,2 -0,3 14 8 - - N 1022,3 10 0
15.01.2017 20:00:00 4,1 0,1 11 6 - - N 1022,0 10 0
15.01.2017 19:00:00 2,9 -0,8 22 12 - - N 1021,6 9 0
15.01.2017 18:00:00 3,6 0,8 25 14 - - NNO 1021,2 10 0
15.01.2017 17:00:00 3,2 0,8 18 10 - - NO 1020,6 10 0
15.01.2017 16:00:00 3,8 0,3 11 6 - - NO 1019,8 10 24
15.01.2017 15:00:00 5,0 -0,8 18 10 - - NNW 1019,5 10 12
15.01.2017 14:00:00 4,2 0,4 4 2 - - W 1019,1 10 18
15.01.2017 13:00:00 3,1 0,6 22 12 - - NO 1018,8 10 12
15.01.2017 12:00:00 1,6 0,1 32 18 50 27 NNO 1018,8 9 30
15.01.2017 11:00:00 4,1 -0,9 40 21 50 27 NNW 1018,0 10 18
15.01.2017 10:00:00 - - - - - - - - - -
15.01.2017 09:00:00 4,9 -2,3 29 16 61 33 NNW 1017,0 10 0
15.01.2017 08:00:00 4,2 -0,4 32 18 54 29 NNW 1016,8 10 0
15.01.2017 07:00:00 4,2 -0,4 32 18 - - NNW 1016,3 10 0
15.01.2017 06:00:00 4,3 -1,6 47 25 65 35 NNW 1015,7 10 0
15.01.2017 05:00:00 1,8 -0,5 50 27 76 41 NNW 1015,7 5 0
15.01.2017 04:00:00 3,7 0,6 25 14 - - N 1014,8 10 0
15.01.2017 03:00:00 4,9 -0,7 47 25 68 37 NW 1014,0 10 0
15.01.2017 02:00:00 2,4 -0,3 40 21 79 43 N 1013,6 10 0
15.01.2017 01:00:00 4,7 0,6 40 21 - - NW 1012,9 10 0

tt = temperatuur
td = dauwpunt
ff = windsnelheid
fx = windstoten
dd = windrichting
ppp = luchtdruk
vv = zicht
sd = Zonneschijnduur

Weerstations in de omgeving